Regional Weather Roundup
Issued by NWS Northern Indiana

Home | Current Version | Previous Version | Text Only | Print | Product List | Glossary Off
Versions: 1 2 3 4 5 6 7 8 9 10 11 12 13 14 15 16 17 18 19 20 21 22 23 24 25 26 27 28 29 30 31 32 33 34 35 36 37 38 39 40 41 42 43 44 45 46 47 48 49 50

000
ASUS43 KIWX 231010
RWRIWX

KIWX WEATHER ROUNDUP
NATIONAL WEATHER SERVICE NORTHERN INDIANA
600 AM EDT WED APR 23 2014

NOTE: "FAIR" INDICATES FEW OR NO CLOUDS BELOW 12,000 FEET WITH NO
SIGNIFICANT WEATHER AND/OR OBSTRUCTIONS TO VISIBILITY.

* THESE STATIONS ARE NOT UNDER NWS QUALITY CONTROL. THEY ALSO MAY NOT
  REPORT WEATHER SUCH AS PRECIPITATION OR FOG.

INZ001>027-231100-
NORTHERN INDIANA

CITY           SKY/WX    TMP DP  RH WIND       PRES   REMARKS
GARY*          CLEAR     37  30  75 N12       30.14R
VALPARAISO     CLEAR     34  26  72 N10       30.10S WCI  26
MICHIGAN CITY* CLEAR     34  28  80 N8        30.12R WCI  27
LAPORTE*       CLEAR     33  28  80 N13       30.11R WCI  24
SOUTH BEND     CLEAR     33  26  75 N9        30.10R WCI  25
GOSHEN         CLEAR     34  27  75 NW8       30.08R WCI  27
MONTICELLO*    CLEAR     31  27  86 N5        30.09R WCI  26
LOGANSPORT*    CLEAR     34  28  80 NW6       30.09R WCI  29
ROCHESTER*     CLEAR     36  30  80 NW8       30.08R
WARSAW*        CLEAR     32  28  86 N5        30.07R WCI  27
ANGOLA*        CLEAR     34  27  75 N8        30.04R WCI  27
FORT WAYNE     CLEAR     34  26  72 NW6       30.05R WCI  29
HUNTINGTON*    FAIR      34  28  77 N5        30.05R WCI  30
PERU/GRISSOM   CLEAR     34  33  96 NW9       30.07R WCI  27
MARION*        CLEAR     33  27  79 NW6       30.06R WCI  27

$$
INZ028>050-231100-
CENTRAL INDIANA

CITY           SKY/WX    TMP DP  RH WIND       PRES   REMARKS
LAFAYETTE      CLEAR     34  27  75 N5        30.10R WCI  30
KOKOMO*        CLEAR     34  27  75 NW9       30.07R WCI  26
MUNCIE*        CLEAR     34  28  79 NW8       30.04R WCI  27
INDIANAPOLIS   CLEAR     37  26  64 N10       30.05S

$$
MIZ043>046-050>051-056>058-064>065-071>073-077>080-231100-
SOUTHWEST LOWER MICHIGAN

CITY           SKY/WX    TMP DP  RH WIND       PRES   REMARKS
BATTLE CREEK   CLEAR     32  25  75 NW8       30.07R WCI  25
BENTON HARBOR  CLEAR     34  29  82 VRB5      30.12R WCI  30
COLDWATER*     CLEAR     32  27  81 N8        30.05R WCI  25
HILLSDALE*     CLOUDY    36  28  73 N13       30.03R
HOLLAND        CLEAR     34  26  72 N5        30.11R WCI  30
GRAND RAPIDS   CLEAR     32  26  78 NW8       30.09R WCI  25
KALAMAZOO      CLEAR     32  25  75 N13       30.08R WCI  22
STURGIS*       CLEAR     32  27  80 NW5       30.06R WCI  27
THREE RIVERS*  FAIR      33  26  76 N6        30.08R WCI  28

$$
OHZ001>008-015>018-024>025-231100-
NORTHWEST OHIO

CITY           SKY/WX    TMP DP  RH WIND       PRES   REMARKS
WAUSEON*       CLOUDY    34  28  80 NW8       30.03R WCI  27
DEFIANCE       CLEAR     35  27  72 N8        30.04R WCI  29
FINDLAY        CLEAR     35  28  75 N12       30.00R WCI  27
TOLEDO EXPRESS MOCLDY    35  28  75 N6        30.01R WCI  30
TOLEDO METCALF CLEAR     36  28  73 NW10      30.02R
LIMA           CLEAR     36  28  73 NW10      30.01R

$$
&&



USA.gov is the U.S. government's official web portal to all federal, state and local government web resources and services.